Regional Weather Roundup
Issued by NWS

Home | Current Version | Previous Version | Text Only | Print | Product List | Glossary Off
Versions: 1 2 3 4 5 6 7 8 9 10 11 12 13 14 15 16 17 18 19 20 21 22 23 24 25 26 27 28 29 30 31 32 33 34 35 36 37 38 39 40 41 42 43 44 45 46 47 48 49 50

000
ASUS43 KLOT 210010
RWRIL

ILLINOIS REGIONAL WEATHER ROUNDUP
NATIONAL WEATHER SERVICE CHICAGO/ROMEOVILLE IL
700 PM CDT SAT SEP 20 2014

NOTE: "FAIR" INDICATES FEW OR NO CLOUDS BELOW 12,000 FEET WITH NO
SIGNIFICANT WEATHER AND/OR OBSTRUCTIONS TO VISIBILITY.

* THESE STATIONS ARE NOT UNDER NWS QUALITY CONTROL. THEY ALSO MAY NOT
  REPORT WEATHER SUCH AS PRECIPITATION OR FOG.

ILZ001-002-007-009-015-016-024-210100-
NORTHWEST ILLINOIS

CITY           SKY/WX    TMP DP  RH WIND       PRES   REMARKS
MOLINE         LGT RAIN  73  68  84 W8        29.81S
6HR MIN TEMP:  73; 6HR MAX TEMP:  79; 6HR PCP:  0.02;

STERLING*      CLEAR     73  64  73 W7        29.80S
SAVANNA*       PTCLDY    74  65  72 SW6       29.78F
$$

ILZ003-004-008-010-011-017-018-210100-
NORTH CENTRAL ILLINOIS

CITY           SKY/WX    TMP DP  RH WIND       PRES   REMARKS
ROCKFORD       PTCLDY    73  64  73 SW7       29.80S
6HR MIN TEMP:  71; 6HR MAX TEMP:  80; 6HR PCP:  0.05;

FREEPORT*      CLEAR     73  68  86 SW7       29.81S
ROCHELLE*      CLEAR     71  64  79 SW7       29.81S
DE KALB*       CLEAR     69  63  81 SW6       29.81F
PERU*          CLOUDY    73  69  87 SW5       29.83S
$$

ILZ005-006-012>014-019>023-210100-
NORTHEAST ILLINOIS

CITY           SKY/WX    TMP DP  RH WIND       PRES   REMARKS
CHICAGO-OHARE  PTCLDY    73  63  70 SW5       29.80R
6HR MIN TEMP:  72; 6HR MAX TEMP:  77; 6HR PCP:  0.08;

CHICAGO-MIDWAY PTCLDY    74  67  78 SW8       29.81R
6HR MIN TEMP:  74; 6HR MAX TEMP:  79; 6HR PCP:  0.03;

AURORA         PTCLDY    72  64  76 SW7       29.81R
6HR MIN TEMP:  70; 6HR MAX TEMP:  78; 6HR PCP:  0.08;

LANSING*       CLOUDY    71  65  82 SW7       29.82R
JOLIET*        PTCLDY    70  64  80 CALM      29.83R
WAUKEGAN       CLEAR     69  62  78 SW6       29.78R
6HR MIN TEMP:  65; 6HR MAX TEMP:  76; 6HR PCP:  0.36;

DUPAGE AIRPORT PTCLDY    71  63  75 SW7       29.80R
6HR MIN TEMP:  71; 6HR MAX TEMP:  76; 6HR PCP:  0.04;

KANKAKEE*      CLOUDY    73  68  86 SW8       29.84S
WHEELING       CLEAR     74  59  59 SW5       29.81R
6HR MIN TEMP:  74; 6HR MAX TEMP:  77; 6HR PCP: TRACE;

MORRIS*        PTCLDY    71  69  94 SW3       29.81S
ROMEOVILLE*    MOCLDY    69  63  80 SW6       29.82R
NORTHERLY ISL    N/A     73  64  73 SW6         N/A
$$

LMZ740>746-210100-
SOUTHERN LAKE MICHIGAN

STATION/POSITION SKY/WX   TEMP    WIND        PRES    VSBY  WAVE
                          AIR SEA DIR/SP/G                  HT/PER
                          (F)     (DEG/KT/KT) (MB)    (MI)  (FT/S)
SOUTHERN BUOY              66 63  230/ 12/ 14 1007.8R         2/ 4
WAUKEGAN HARBOR            72     240/  8/ 10   N/A
HARRISON CRIB              73     210/ 12/ 16   N/A
BURNHAM HARBOR             73     170/  7/  9   N/A
CALUMET HARBOR             72     210/  6/  9 1008.2R
MICHIGAN CITY              69     170/ 10/ 12   N/A
MICHIGAN CITY 6N           67 65  200/  8/ 10   N/A           1/ 3
ST. JOSEPH                 67 66  170/ 10/ 12   N/A           2/ 4
$$

ILZ025>027-034>036-040-047-049-050-058-095>099-210100-
WEST-CENTRAL ILLINOIS

CITY           SKY/WX    TMP DP  RH WIND       PRES   REMARKS
QUINCY         PTCLDY    75  71  87 W3        29.88S
GALESBURG*     PTCLDY    76  68  76 SW6       29.84S
MACOMB*        MOCLDY    76  67  74 SW12G18   29.86F
JACKSONVILLE*  CLEAR     79  71  76 SW5       29.89S HX  82
PITTSFIELD*    CLEAR     80  67  65 SW5       29.89S HX  82
$$

ILZ028>032-037-038-041>044-048-051>054-059>061-210100-
CENTRAL ILLINOIS

CITY           SKY/WX    TMP DP  RH WIND       PRES   REMARKS
PONTIAC        PTCLDY    75  70  83 SW5       29.83S
DECATUR        LGT RAIN  75  72  90 SW3       29.89S
PEORIA         MOCLDY    78  67  68 SW9       29.84R HX  80
6HR MIN TEMP:  77; 6HR MAX TEMP:  81; 6HR PCP: TRACE;

LACON*         MOCLDY    75  67  76 SW5       29.82S
LINCOLN*       PTCLDY    78  68  72 SW3       29.84S HX  80
SPRINGFIELD    PTCLDY    74  68  81 SW5       29.88S
6HR MIN TEMP:  74; 6HR MAX TEMP:  85; 6HR PCP:  0.20;

TAYLORVILLE    MOCLDY    77  68  73 SW7       29.89R
$$

ILZ033-039-045-046-055>057-062-063-210100-
EAST-CENTRAL ILLINOIS

CITY           SKY/WX    TMP DP  RH WIND       PRES   REMARKS
CHAMPAIGN      CLOUDY    71  69  93 SE5       29.90R
DANVILLE*      RAIN      67  65  93 S7        29.86S
RANTOUL*       PTCLDY    71  66  85 SW7       29.88S
MATTOON        MOCLDY    77  68  73 S5        29.90S
PARIS*         TSTM      71  69  93 N9G21     29.93R
$$

ILZ079-100>102-210100-
SOUTHWEST ILLINOIS

CITY           SKY/WX    TMP DP  RH WIND       PRES   REMARKS
ALTON          PTCLDY    79  66  65 W8        29.91S HX  81
BELLEVILLE     CLEAR     80  68  66 CALM      29.90S HX  83
CAHOKIA*       CLEAR     82  65  56 SW3       29.91R HX  84
SPARTA*        CLEAR     80  68  67 SW7       29.93S HX  82
$$

ILZ064>066-069>071-074>076-080>082-084>086-088>090-092>094-210100-
SOUTH-CENTRAL ILLINOIS

CITY           SKY/WX    TMP DP  RH WIND       PRES   REMARKS
CARBONDALE     CLEAR     77  68  73 S7        29.93S
6HR MIN TEMP:  77; 6HR MAX TEMP:  85;

CAIRO*         PTCLDY    79  68  69 S6        29.94F HX  81
EFFINGHAM*     PTCLDY    77  65  66 S3        29.91R
MARION         CLEAR     79  68  69 SW6       29.94F HX  81
MT. VERNON     MOCLDY    75  66  73 CALM      29.93S
CENTRALIA*     PTCLDY    74  67  77 S5        29.92S
SALEM*         CLEAR     78  70  77 S5        29.92S HX  80
METROPOLIS*    CLEAR     79  69  71 S3        29.95S HX  81
$$

ILZ067-068-072-073-078-083-087-091-210100-
SOUTHEAST ILLINOIS

CITY           SKY/WX    TMP DP  RH WIND       PRES   REMARKS
LAWRENCEVILLE  PTCLDY    76  67  73 SW8       29.93S
FLORA*         PTCLDY    76  67  73 SW5       29.92S
FAIRFIELD*     PTCLDY   N/A N/A N/A S5        29.92S
HARRISBURG*    PTCLDY    79  67  67 S5        29.95R HX  81
ROBINSON*      MOCLDY    78  69  73 S3        29.92F HX  80
CARMI*         PTCLDY    77  69  75 S3        29.93S
$$

ABBREVIATIONS USED IN REMARKS
   TC - TEMPERATURE IN CELSIUS
  WCI - WIND CHILL INDEX
   HX - HEAT INDEX
  VSB - VISIBILITY
$$




USA.gov is the U.S. government's official web portal to all federal, state and local government web resources and services.